Weather History for KFWA - June, 2013

Change the Weather History Date:

Friday, June 21, 2013

  Actual Average Record
Temperature  
Mean Temperature 76 °F 72 °F  
Max Temperature 87 °F 83 °F 102 °F (1988)
Min Temperature 64 °F 61 °F 43 °F (1897)
Degree Days  
Heating Degree Days 0 0  
Month to date heating degree days 19 29  
Since 1 June heating degree days 19 29  
Since 1 July heating degree days 6000 6101  
Cooling Degree Days 11 7  
Month to date cooling degree days 96 109  
Year to date cooling degree days 201 166  
Since 1 June cooling degree days 96 109  
Growing Degree Days 26 (Base 50)    
Moisture  
Dew Point 60 °F    
Average Humidity 61    
Maximum Humidity 87    
Minimum Humidity 35    
Precipitation  
Precipitation 0.00 in 0.13 in 1.33 in (1927)
Month to date precipitation 2.38 3.03  
Year to date precipitation 20.05 17.83  
Snow  
Snow 0.00 in 0.00 in - (0.0)
Month to date snowfall 0.0 0.0  
Since 1 June snowfall 0.0 0.0  
Since 1 July snowfall 38.5 33.5  
Snow Depth 0.00 in    
Sea Level Pressure  
Sea Level Pressure 30.15 in    
Wind  
Wind Speed 7 mph (SSW)    
Max Wind Speed 18 mph    
Max Gust Speed 23 mph    
Visibility 10 miles    
Events      
T = Trace of Precipitation, MM = Missing Value Source: NWS Daily Summary

Daily Weather History Graph

Daily Weather History Graph

Search for Another Location

Airport or City:

Trip Planner

Search our weather history database for the weather conditions in past years. The results will help you decide how hot, cold, wet, or windy it might be!

Date:

Astronomy

Jun. 21, 2013 Rise Set
Actual Time 6:08 AM EDT 9:16 PM EDT
Civil Twilight 5:35 AM EDT 9:50 PM EDT
Nautical Twilight 4:52 AM EDT 10:33 PM EDT
Astronomical Twilight 4:01 AM EDT 11:24 PM EDT
Moon 7:25 PM EDT (6/21) 4:24 AM EDT (6/21)
Length of Visible Light 16h 14m
Length of Day
15h 07m
Waxing Gibbous, 95% of the Moon is Illuminated
Jun 21
Waxing Gibbous
Jun 23
Full
Jun 30
Last Quarter
Jul 8
New
Jul 15
First Quarter

Hourly Weather History & Observations

Time (EDT) Temp. Heat Index Dew Point Humidity Pressure Visibility Wind Dir Wind Speed Gust Speed Precip Events Conditions
12:54 AM 68.0 °F - 63.0 °F 84% 30.18 in 10.0 mi Calm Calm - N/A   Partly Cloudy
1:54 AM 68.0 °F - 63.0 °F 84% 30.18 in 10.0 mi Calm Calm - N/A   Partly Cloudy
2:54 AM 66.9 °F - 62.1 °F 84% 30.18 in 10.0 mi South 3.5 mph - N/A   Partly Cloudy
3:54 AM 66.0 °F - 60.1 °F 81% 30.17 in 10.0 mi Calm Calm - N/A   Scattered Clouds
4:54 AM 64.9 °F - 59.0 °F 81% 30.17 in 10.0 mi SSW 3.5 mph - N/A   Scattered Clouds
5:54 AM 64.9 °F - 59.0 °F 81% 30.18 in 10.0 mi SSW 6.9 mph - N/A   Partly Cloudy
6:54 AM 64.9 °F - 59.0 °F 81% 30.18 in 10.0 mi SSW 4.6 mph - N/A   Partly Cloudy
7:54 AM 69.1 °F - 60.1 °F 73% 30.18 in 10.0 mi SSW 9.2 mph - N/A   Partly Cloudy
8:54 AM 75.0 °F - 60.1 °F 60% 30.19 in 10.0 mi SSW 8.1 mph - N/A   Partly Cloudy
9:54 AM 79.0 °F - 61.0 °F 54% 30.17 in 10.0 mi South 10.4 mph - N/A   Scattered Clouds
10:54 AM 82.0 °F 82.1 °F 59.0 °F 45% 30.18 in 10.0 mi SSW 11.5 mph - N/A   Scattered Clouds
11:54 AM 84.0 °F 83.8 °F 59.0 °F 43% 30.20 in 10.0 mi SSW 10.4 mph - N/A   Mostly Cloudy
12:54 PM 84.9 °F 84.8 °F 60.1 °F 43% 30.18 in 10.0 mi SSW 9.2 mph - N/A   Scattered Clouds
1:54 PM 84.9 °F 84.2 °F 57.9 °F 40% 30.17 in 10.0 mi South 10.4 mph - N/A   Mostly Cloudy
2:54 PM 86.0 °F 85.0 °F 57.9 °F 38% 30.16 in 10.0 mi South 8.1 mph - N/A   Mostly Cloudy
3:54 PM 86.0 °F 84.7 °F 55.9 °F 36% 30.15 in 10.0 mi SSW 9.2 mph - N/A   Mostly Cloudy
4:54 PM 86.0 °F 84.9 °F 57.0 °F 37% 30.14 in 10.0 mi SW 9.2 mph - N/A   Mostly Cloudy
5:54 PM 84.9 °F 84.2 °F 57.9 °F 40% 30.12 in 10.0 mi South 8.1 mph - N/A   Mostly Cloudy
6:54 PM 82.9 °F 83.3 °F 61.0 °F 47% 30.11 in 10.0 mi SSW 9.2 mph - N/A   Overcast
7:54 PM 82.0 °F 82.4 °F 60.1 °F 47% 30.08 in 10.0 mi South 10.4 mph - N/A   Overcast
8:54 PM 81.0 °F 81.1 °F 57.9 °F 45% 30.02 in 10.0 mi South 15.0 mph - N/A   Overcast
9:54 PM 79.0 °F - 57.9 °F 48% 30.03 in 10.0 mi SSE 9.2 mph - N/A   Overcast
10:54 PM 77.0 °F - 61.0 °F 58% 30.08 in 10.0 mi SW 4.6 mph - N/A   Overcast
11:54 PM 75.9 °F - 62.1 °F 62% 30.11 in 10.0 mi SW 3.5 mph - N/A   Overcast